Weather History for South St. Paul, MN

Change the Weather History Date:

Friday, May 3, 2013

  Actual Average (KMSP) Record (KMSP)
Temperature  
Mean Temperature 38 °F 55 °F  
Max Temperature 40 °F 66 °F 93 °F (1949)
Min Temperature 34 °F 45 °F 18 °F (1967)
Degree Days  
Heating Degree Days 28 10  
Month to date heating degree days 32  
Since 1 July heating degree days 7350  
Cooling Degree Days 0 1  
Month to date cooling degree days 1  
Year to date cooling degree days 6  
Moisture  
Dew Point 31 °F    
Average Humidity 80    
Maximum Humidity 95    
Minimum Humidity 57    
Precipitation  
Precipitation 0.13 in 0.11 in 1.72 in (1912)
Month to date precipitation 0.33  
Year to date precipitation 6.55  
Snow  
Snow 0.00 in 0.00 in 0.50 in (2013)
Month to date snowfall 0.0  
Since 1 July snowfall 54.4  
Snow Depth -    
Sea Level Pressure  
Sea Level Pressure 30.25 in    
Wind  
Wind Speed 9 mph (NNE)    
Max Wind Speed 14 mph    
Max Gust Speed 24 mph    
Visibility 7 miles    
Events Rain , Snow    
T = Trace of Precipitation, MM = Missing Value Source: NWS Daily Summary

Daily Weather History Graph

Daily Weather History Graph

Search for Another Location

Airport:

Trip Planner

Search our weather history database for the weather conditions in past years. The results will help you decide how hot, cold, wet, or windy it might be!

Date:

Astronomy

May. 03, 2013 Rise Set
Actual Time 5:58 AM CDT 8:20 PM CDT
Civil Twilight 5:25 AM CDT 8:52 PM CDT
Nautical Twilight 4:45 AM CDT 9:33 PM CDT
Astronomical Twilight 4:00 AM CDT 10:19 PM CDT
Moon 2:39 AM CDT (5/3) 2:00 PM CDT (5/3)
Length of Visible Light 15h 26m
Length of Day
14h 21m
Last Quarter, 37% of the Moon is Illuminated
May 3
Last Quarter
May 9
New
May 17
First Quarter
May 24
Full
May 31
Last Quarter

Hourly Weather History & Observations

Time (CDT) Temp. Windchill Dew Point Humidity Pressure Visibility Wind Dir Wind Speed Gust Speed Precip Events Conditions
12:14 AM 41.0 °F 35.8 °F 29.8 °F 64% 30.40 in 10.0 mi NE 8.1 mph - N/A   Scattered Clouds
12:34 AM 41.0 °F 36.4 °F 29.5 °F 64% 30.40 in 10.0 mi NE 6.9 mph - N/A   Overcast
12:54 AM 41.0 °F 36.4 °F 29.8 °F 64% 30.39 in 10.0 mi NNE 6.9 mph - N/A   Overcast
1:14 AM 40.6 °F 36.0 °F 29.1 °F 64% 30.39 in 10.0 mi NNE 6.9 mph - N/A   Overcast
1:34 AM 40.6 °F 35.4 °F 29.1 °F 64% 30.39 in 10.0 mi NNE 8.1 mph - N/A   Overcast
1:54 AM 40.5 °F 34.6 °F 26.8 °F 58% 30.38 in 10.0 mi NNE 9.2 mph - N/A   Overcast
2:14 AM 40.1 °F 34.7 °F 26.1 °F 57% 30.37 in 10.0 mi North 8.1 mph - N/A   Mostly Cloudy
2:34 AM 39.7 °F 34.3 °F 26.2 °F 59% 30.36 in 10.0 mi North 8.1 mph - N/A   Scattered Clouds
2:54 AM 39.4 °F 33.8 °F 26.4 °F 60% 30.37 in 10.0 mi North 8.1 mph - N/A   Scattered Clouds
3:14 AM 39.2 °F 33.6 °F 26.4 °F 60% 30.36 in 10.0 mi North 8.1 mph - N/A   Overcast
3:34 AM 38.7 °F 35.2 °F 26.4 °F 61% 30.35 in 10.0 mi NNE 4.6 mph - N/A   Overcast
3:54 AM 38.7 °F 32.4 °F 27.1 °F 63% 30.35 in 10.0 mi North 9.2 mph - N/A   Overcast
4:14 AM 38.5 °F 33.4 °F 27.1 °F 64% 30.34 in 10.0 mi North 6.9 mph - N/A   Scattered Clouds
4:34 AM 38.3 °F 30.9 °F 27.3 °F 65% 30.33 in 10.0 mi NNE 11.5 mph 16.1 mph N/A   Scattered Clouds
4:54 AM 37.8 °F 31.3 °F 27.5 °F 67% 30.32 in 10.0 mi NNE 9.2 mph - N/A   Clear
5:14 AM 37.4 °F 30.8 °F 28.0 °F 69% 30.32 in 10.0 mi NNE 9.2 mph - N/A   Clear
5:34 AM 37.4 °F 30.3 °F 28.4 °F 70% 30.32 in 10.0 mi North 10.4 mph - N/A   Mostly Cloudy
5:54 AM 36.9 °F 29.6 °F 28.0 °F 70% 30.32 in 10.0 mi North 10.4 mph 17.3 mph N/A   Overcast
6:14 AM 36.5 °F 29.2 °F 28.0 °F 71% 30.31 in 10.0 mi North 10.4 mph - N/A   Overcast
6:34 AM 36.0 °F 27.5 °F 28.4 °F 74% 30.31 in 10.0 mi North 12.7 mph - N/A   Overcast
6:54 AM 35.8 °F 29.4 °F 28.9 °F 76% 30.30 in 5.0 mi North 8.1 mph - N/A Snow Light Snow
7:14 AM 35.2 °F 27.1 °F 29.7 °F 80% 30.30 in 2.5 mi North 11.5 mph 18.4 mph N/A Snow Light Snow
7:34 AM 34.7 °F 27.5 °F 30.4 °F 84% 30.30 in 0.8 mi North 9.2 mph - N/A Snow Light Snow
7:54 AM 34.2 °F 27.5 °F 31.5 °F 90% 30.30 in 0.8 mi North 8.1 mph - N/A Snow Snow
8:14 AM 34.3 °F 27.7 °F 31.5 °F 89% 30.30 in 1.8 mi North 8.1 mph - N/A Snow Light Snow
8:34 AM 34.7 °F 26.9 °F 31.6 °F 89% 30.30 in 2.0 mi North 10.4 mph - N/A Snow Light Snow
8:54 AM 34.7 °F 26.4 °F 31.1 °F 87% 30.29 in 3.0 mi North 11.5 mph - N/A Snow Light Snow
9:14 AM 34.7 °F 26.4 °F 31.5 °F 88% 30.28 in 2.5 mi North 11.5 mph - N/A Snow Light Snow
9:34 AM 34.9 °F 27.7 °F 31.6 °F 88% 30.27 in 2.5 mi North 9.2 mph 16.1 mph N/A Snow Light Snow
9:54 AM 35.6 °F 29.2 °F 32.0 °F 87% 30.27 in 3.0 mi North 8.1 mph - N/A Snow Light Snow
10:14 AM 36.0 °F 29.0 °F 32.2 °F 86% 30.26 in 2.5 mi North 9.2 mph - N/A Snow Light Snow
10:34 AM 36.0 °F 29.6 °F 32.4 °F 87% 30.26 in 3.0 mi North 8.1 mph - N/A Snow Light Snow
10:54 AM 36.5 °F 29.7 °F 32.2 °F 84% 30.26 in 4.0 mi North 9.2 mph - N/A Snow Light Snow
11:14 AM 36.3 °F 29.5 °F 32.5 °F 86% 30.26 in 1.5 mi North 9.2 mph - N/A Snow Light Snow
11:34 AM 36.1 °F 29.3 °F 32.9 °F 88% 30.25 in 1.8 mi North 9.2 mph - 0.01 in Snow Light Snow
11:54 AM 36.5 °F 29.2 °F 33.1 °F 87% 30.25 in 3.0 mi North 10.4 mph 17.3 mph 0.01 in Snow Light Snow
12:14 PM 36.9 °F 30.7 °F 34.2 °F 90% 30.23 in 5.0 mi North 8.1 mph - N/A   Mostly Cloudy
12:34 PM 36.3 °F 29.5 °F 34.7 °F 94% 30.22 in 4.0 mi North 9.2 mph 16.1 mph 0.01 in Snow Light Snow
12:54 PM 36.5 °F 27.8 °F 34.9 °F 94% 30.22 in 4.0 mi North 13.8 mph 18.4 mph 0.01 in   Overcast
1:14 PM 36.7 °F 28.9 °F 35.4 °F 95% 30.20 in 10.0 mi North 11.5 mph 19.6 mph N/A   Overcast
1:34 PM 36.5 °F 29.2 °F 35.1 °F 95% 30.20 in 5.0 mi North 10.4 mph - N/A Rain Light Rain
1:54 PM 36.5 °F 27.8 °F 35.1 °F 95% 30.19 in 10.0 mi NNE 13.8 mph 19.6 mph N/A Rain Light Rain
2:14 PM 37.0 °F 28.5 °F 35.1 °F 93% 30.18 in 10.0 mi NNE 13.8 mph 19.6 mph 0.01 in Snow Light Snow
2:34 PM 37.6 °F 29.6 °F 34.0 °F 87% 30.19 in 10.0 mi North 12.7 mph - 0.01 in Rain Light Rain
2:54 PM 37.8 °F 29.4 °F 33.1 °F 83% 30.18 in 7.0 mi NNE 13.8 mph 24.2 mph 0.01 in Snow Light Snow
3:14 PM 37.8 °F 29.8 °F 33.1 °F 83% 30.18 in 5.0 mi NNE 12.7 mph 21.9 mph N/A Snow Light Snow
3:34 PM 37.6 °F 30.0 °F 33.3 °F 84% 30.17 in 7.0 mi NNE 11.5 mph 17.3 mph 0.01 in Rain Light Rain
3:54 PM 37.6 °F 30.0 °F 33.3 °F 84% 30.16 in 4.0 mi NNE 11.5 mph 16.1 mph 0.02 in   Overcast
4:14 PM 38.1 °F 29.8 °F 34.0 °F 85% 30.16 in 7.0 mi North 13.8 mph - 0.01 in Rain Light Rain
4:34 PM 37.4 °F 29.8 °F 33.3 °F 85% 30.17 in 7.0 mi NNE 11.5 mph - 0.02 in Rain Light Rain
4:54 PM 37.8 °F 30.7 °F 34.0 °F 86% 30.16 in 10.0 mi North 10.4 mph - 0.02 in Rain Light Rain
5:14 PM 37.4 °F 30.3 °F 33.4 °F 86% 30.16 in 10.0 mi NNE 10.4 mph - 0.01 in Rain Light Rain
5:34 PM 37.4 °F 31.4 °F 33.3 °F 85% 30.16 in 5.0 mi NNE 8.1 mph - 0.01 in Rain Light Rain
5:54 PM 37.4 °F 30.3 °F 32.9 °F 84% 30.17 in 5.0 mi North 10.4 mph 16.1 mph 0.03 in Rain Light Rain
6:14 PM 36.9 °F 28.7 °F 32.7 °F 85% 30.17 in 7.0 mi NNE 12.7 mph - 0.01 in Rain Light Rain
6:34 PM 36.9 °F 29.1 °F 33.3 °F 87% 30.17 in 7.0 mi NNE 11.5 mph 17.3 mph 0.02 in Rain Light Rain
6:54 PM 36.7 °F 30.5 °F 32.9 °F 86% 30.17 in 10.0 mi NNE 8.1 mph - 0.02 in   Light Drizzle
7:14 PM 36.7 °F 30.5 °F 33.1 °F 87% 30.17 in 7.0 mi NNE 8.1 mph - N/A Rain Light Rain
7:34 PM 36.5 °F 28.2 °F 32.4 °F 85% 30.16 in 10.0 mi NNE 12.7 mph 19.6 mph 0.01 in Rain Light Rain
7:54 PM 36.5 °F 29.7 °F 32.5 °F 86% 30.15 in 10.0 mi NNE 9.2 mph 16.1 mph 0.01 in   Light Drizzle
8:14 PM 36.5 °F 29.7 °F 32.0 °F 84% 30.16 in 10.0 mi NNE 9.2 mph 19.6 mph N/A   Overcast
8:34 PM 36.3 °F 28.0 °F 32.0 °F 84% 30.16 in 10.0 mi NNE 12.7 mph - N/A   Light Drizzle
8:54 PM 36.3 °F 28.4 °F 32.0 °F 84% 30.16 in 10.0 mi NNE 11.5 mph 20.7 mph N/A   Overcast
9:14 PM 36.1 °F 28.7 °F 32.0 °F 85% 30.16 in 10.0 mi NNE 10.4 mph 19.6 mph N/A   Light Drizzle
9:34 PM 36.1 °F 28.7 °F 32.0 °F 85% 30.17 in 10.0 mi NNE 10.4 mph - N/A   Overcast
9:54 PM 36.0 °F 28.0 °F 32.0 °F 86% 30.16 in 10.0 mi NNE 11.5 mph 17.3 mph N/A   Overcast
10:14 PM 36.0 °F 27.5 °F 32.0 °F 86% 30.16 in 10.0 mi NNE 12.7 mph 17.3 mph N/A   Overcast
10:34 PM 36.0 °F 28.0 °F 32.0 °F 86% 30.16 in 10.0 mi NNE 11.5 mph - N/A   Overcast
10:54 PM 36.1 °F 30.6 °F 32.2 °F 86% 30.16 in 10.0 mi NNE 6.9 mph - N/A   Overcast
11:14 PM 36.1 °F 30.6 °F 32.0 °F 85% 30.15 in 10.0 mi North 6.9 mph - N/A   Overcast
11:34 PM 36.1 °F 30.6 °F 32.0 °F 85% 30.15 in 10.0 mi NNE 6.9 mph - N/A   Light Drizzle
11:54 PM 36.1 °F 32.3 °F 32.2 °F 86% 30.16 in 10.0 mi NNE 4.6 mph - N/A   Overcast